[[{"header":{"parameterUnit":"m.s-1","parameterCategory":1,"la1":30.2991,"la2":30.254,"lo1":-89.0895,"lo2":-89.0444,"dy":0.0017,"dx":0.0017,"nx":28,"ny":28,"refTime":"2024-08-31T21:00:00:Z","depth":0,"parameterNumber":2,"parameterNumberName":"U-component_of_WINDS"},"data":[0,0,0,0,0,0,0,0,0,0,0,0,0,0,0,0,0,0,0,0,0,0,0,0,0,0,0,0,0,0,0,0,0,0,0,0,0,0,0,0,0,0,0,0,0,0,0,0,0,0,0,0,0,0,0,0,0,0,-1.0295,-1.0295,0,-1.0292,-1.0292,-1.0292,-1.0218,-1.0216,-1.0214,-1.0212,-1.0213,-1.0214,-1.0216,0,0,0,0,0,0,0,0,0,0,0,0,0,-1.0239,-1.024,-1.0295,-1.0295,-1.0295,-1.0292,-1.0292,-1.0292,-1.0218,-1.0216,-1.0214,-1.0211,-1.0212,-1.0214,-1.0216,0,0,0,0,0,0,0,0,0,0,0,0,0,-1.0252,-1.024,-1.0295,-1.0258,-1.0254,-1.0292,-1.0292,-1.0292,-1.0219,-1.0216,-1.0213,-1.021,-1.0211,-1.0214,-1.0217,-1.0291,0,0,-1.0225,-1.0226,0,0,0,0,0,0,0,0,-1.0252,-1.0254,-1.0263,-1.026,-1.0256,-1.0252,-1.0272,-1.0292,-1.022,-1.0232,-1.0212,-1.0209,-1.0228,-1.023,-1.0235,-1.0291,-1.0291,-1.0225,-1.0227,-1.0228,-1.0229,0,0,0,0,0,0,0,-1.0251,-1.0254,-1.0294,-1.0263,-1.0259,-1.0242,-1.024,-1.0275,-1.0247,-1.0231,-1.0226,-1.0226,-1.0226,-1.0233,-1.0235,-1.0291,-1.0225,-1.0227,-1.0229,-1.023,-1.0406,-1.0409,0,0,0,0,0,0,-1.0254,-1.0254,-1.0294,-1.0294,-1.0247,-1.0245,-1.0244,-1.0257,-1.0246,-1.0242,-1.0229,-1.0223,-1.023,-1.0232,-1.0235,-1.032,-1.0228,-1.023,-1.0232,-1.0403,-1.0407,-1.041,0,0,0,0,0,0,-1.0254,-1.0259,-1.0294,-1.0272,-1.0275,-1.0249,-1.0264,-1.0258,-1.0265,-1.0244,-1.0239,-1.0241,-1.0228,-1.0231,-1.0277,-1.0319,-1.0232,-1.0234,-1.0399,-1.0404,-1.0408,-1.0492,0,0,0,0,0,0,-1.0252,-1.0259,-1.0286,-1.0273,-1.0277,-1.0336,-1.0267,-1.026,-1.0269,-1.0262,-1.0254,-1.025,-1.0226,-1.0273,-1.028,-1.0321,-1.0236,-1.0395,-1.0401,-1.0407,-1.0486,-1.0499,-1.0511,0,0,0,0,0,-1.0251,-1.0311,-1.0288,-1.0293,-1.031,-1.0339,-1.0341,-1.031,-1.0273,-1.0301,-1.0287,-1.0251,-1.0313,-1.0279,-1.0285,-1.0328,-1.0393,-1.04,-1.0406,-1.048,-1.0497,-1.0511,0,0,0,0,0,0,-1.0331,-1.0309,-1.0283,-1.0341,-1.0342,-1.0326,-1.036,-1.0329,-1.0341,-1.0334,-1.0296,-1.0295,-1.0347,-1.0342,-1.0304,-1.0399,-1.0347,-1.0355,-1.04,-1.0416,-1.0428,-1.0429,-1.0238,0,0,0,0,0,-1.0356,-1.0379,-1.0359,-1.0412,-1.0414,-1.0387,-1.0398,-1.0374,-1.0374,-1.0375,-1.0364,-1.0367,-1.0387,-1.0401,-1.0418,-1.0484,-1.0482,-1.0517,-1.053,-1.054,-1.0548,-1.0582,-1.0598,-1.0433,-1.0433,-1.0432,0,0,-1.0407,-1.0397,-1.0415,-1.0428,-1.0426,-1.0452,-1.0388,-1.0418,-1.0438,-1.038,-1.0422,-1.0415,-1.0415,-1.0471,-1.0495,-1.0469,-1.0593,-1.0549,-1.0557,-1.056,-1.0591,-1.0607,-1.0621,-1.0437,-1.0436,-1.0436,0,0,-1.0513,-1.0508,-1.0551,-1.055,-1.0547,-1.0529,-1.0539,-1.0528,-1.052,-1.0562,-1.0519,-1.0541,-1.0577,-1.0578,-1.0584,-1.0689,-1.0656,-1.0696,-1.0762,-1.0796,-1.0809,-1.082,-1.0858,-1.0872,-1.0704,-1.0704,-1.0704,0,-1.0577,-1.0614,-1.0578,-1.0611,-1.0618,-1.0565,-1.0609,-1.061,-1.0614,-1.062,-1.059,-1.0632,-1.0629,-1.0684,-1.071,-1.0716,-1.0727,-1.0697,-1.081,-1.0821,-1.0831,-1.0866,-1.088,-1.0709,-1.0709,-1.0708,-1.0708,0,-1.0692,-1.0718,-1.0754,-1.0757,-1.0768,-1.0807,-1.0777,-1.0793,-1.0768,-1.0753,-1.0796,-1.0789,-1.0804,-1.0815,-1.0792,-1.0868,-1.0851,-1.0816,-1.0763,-1.0852,-1.0885,-1.0898,-1.0716,-1.0714,-1.0713,-1.0712,0,0,-1.0851,-1.0832,-1.0846,-1.0846,-1.0839,-1.0859,-1.0895,-1.0908,-1.0922,-1.0926,-1.0955,-1.0986,-1.0953,-1.0959,-1.0935,-1.0965,-1.1048,-1.0925,-1.0925,-1.0949,-1.1131,-1.1158,-1.1174,-1.1026,-1.1028,-1.103,-1.1131,0,-1.0953,-1.1012,-1.0981,-1.1045,-1.1068,-1.1018,-1.1049,-1.1048,-1.1035,-1.1054,-1.1039,-1.1061,-1.1016,-1.1019,-1.1046,-1.1033,-1.1085,-1.1025,-1.1054,-1.1055,-1.1055,-1.1191,-1.122,-1.1316,-1.1144,-1.1146,-1.1147,0,-1.1081,-1.1089,-1.1155,-1.1141,-1.115,-1.1179,-1.1188,-1.1206,-1.1204,-1.1192,-1.1199,-1.1167,-1.1202,-1.1149,-1.1196,-1.1156,-1.1166,-1.1161,-1.1164,-1.1166,-1.1107,-1.1197,-1.1346,-1.136,-1.1167,-1.1166,-1.1164,0,-1.119,-1.1217,-1.1259,-1.1261,-1.1247,-1.1268,-1.1264,-1.1259,-1.1268,-1.1276,-1.1282,-1.1295,-1.1302,-1.1313,-1.1286,-1.125,-1.1337,-1.1282,-1.1329,-1.133,-1.135,-1.135,-1.1503,-1.1357,-1.1356,-1.1356,-1.1356,0,-1.1308,-1.135,-1.1308,-1.1334,-1.138,-1.1343,-1.139,-1.138,-1.1376,-1.14,-1.1357,-1.1381,-1.1343,-1.1363,-1.1343,-1.1385,-1.1389,-1.1381,-1.1375,-1.1385,-1.1386,-1.1391,-1.1384,-1.136,-1.1359,-1.1358,-1.1358,0,-1.1437,-1.1411,-1.1454,-1.1436,-1.1433,-1.1467,-1.1453,-1.1477,-1.146,-1.149,-1.1496,-1.147,-1.1491,-1.1465,-1.1484,-1.147,-1.1528,-1.1512,-1.1528,-1.1524,-1.1572,-1.1568,-1.1735,-1.1754,-1.1596,-1.1597,-1.1598,0,-1.1515,-1.1546,-1.1531,-1.1543,-1.154,-1.1561,-1.157,-1.1535,-1.1546,-1.1546,-1.157,-1.1587,-1.1599,-1.1635,-1.1619,-1.1633,-1.1617,-1.1675,-1.1619,-1.1628,-1.1618,-1.1617,-1.162,-1.1686,-1.1688,-1.169,-1.1691,0,-1.1655,-1.1639,-1.1653,-1.1663,-1.1674,-1.1681,-1.1684,-1.1696,-1.166,-1.1675,-1.1695,-1.1704,-1.1723,-1.1741,-1.175,-1.1746,-1.1713,-1.1708,-1.172,-1.1731,-1.1739,-1.1735,-1.1559,-1.1705,-1.1703,-1.1702,-1.1702,-1.1701,-1.176,-1.1785,-1.1778,-1.1795,-1.1793,-1.1797,-1.1818,-1.1803,-1.1819,-1.1831,-1.1809,-1.1835,-1.1831,-1.1841,-1.184,-1.186,-1.1836,-1.1853,-1.1857,-1.1862,-1.1869,-1.1735,-1.1862,-1.1861,-1.1861,-1.1861,-1.186,0,-1.1898,-1.189,-1.1906,-1.1911,-1.1924,-1.189,-1.1891,-1.1905,-1.1928,-1.1927,-1.1939,-1.1962,-1.1979,-1.1963,-1.1977,-1.1996,-1.1981,-1.2001,-1.1999,-1.1999,-1.189,-1.1879,-1.2012,-1.2012,-1.2012,-1.2012,-1.2012,-1.2012,-1.1971,-1.2011,-1.1995,-1.2034,-1.2026,-1.205,-1.2054,-1.2057,-1.2056,-1.2083,-1.2096,-1.2085,-1.2078,-1.2091,-1.2105,-1.2099,-1.2107,-1.2132,-1.2122,-1.2021,-1.2006,-1.1992,-1.1981,-1.2134,-1.2134,-1.2228,-1.2229,-1.223]},{"header":{"parameterUnit":"m.s-1","parameterCategory":1,"la1":30.2991,"la2":30.254,"lo1":-89.0895,"lo2":-89.0444,"dy":0.0017,"dx":0.0017,"nx":28,"ny":28,"refTime":"2024-08-31T21:00:00:Z","depth":0,"parameterNumber":3,"parameterNumberName":"V-component_of_WINDS"},"data":[0,0,0,0,0,0,0,0,0,0,0,0,0,0,0,0,0,0,0,0,0,0,0,0,0,0,0,0,0,0,0,0,0,0,0,0,0,0,0,0,0,0,0,0,0,0,0,0,0,0,0,0,0,0,0,0,0,0,-2.0712,-2.0713,0,-2.0767,-2.0768,-2.0768,-2.0771,-2.0771,-2.077,-2.077,-2.0823,-2.0825,-2.0827,0,0,0,0,0,0,0,0,0,0,0,0,0,-2.0607,-2.0609,-2.0712,-2.0713,-2.0713,-2.0767,-2.0768,-2.0769,-2.0772,-2.0771,-2.077,-2.0769,-2.0823,-2.0825,-2.0827,0,0,0,0,0,0,0,0,0,0,0,0,0,-2.0656,-2.0609,-2.0712,-2.0721,-2.0723,-2.0767,-2.0768,-2.0769,-2.0772,-2.0771,-2.077,-2.0769,-2.0822,-2.0825,-2.0828,-2.0865,0,0,-2.0837,-2.0838,0,0,0,0,0,0,0,0,-2.0653,-2.066,-2.0719,-2.0721,-2.0723,-2.0762,-2.075,-2.0801,-2.0772,-2.0753,-2.077,-2.0769,-2.0803,-2.0808,-2.082,-2.0868,-2.087,-2.0837,-2.0839,-2.084,-2.0841,0,0,0,0,0,0,0,-2.065,-2.0658,-2.0734,-2.072,-2.0722,-2.0722,-2.0728,-2.076,-2.0783,-2.0755,-2.0755,-2.0762,-2.0804,-2.0817,-2.0821,-2.0871,-2.0837,-2.084,-2.0842,-2.0843,-2.0951,-2.0952,0,0,0,0,0,0,-2.0645,-2.0655,-2.0732,-2.0735,-2.0685,-2.0725,-2.0731,-2.075,-2.0782,-2.0786,-2.0762,-2.0762,-2.0812,-2.0818,-2.0823,-2.0869,-2.084,-2.0843,-2.0845,-2.095,-2.0951,-2.0952,0,0,0,0,0,0,-2.0643,-2.0652,-2.073,-2.0695,-2.0705,-2.0728,-2.0748,-2.0751,-2.0765,-2.0788,-2.0792,-2.0772,-2.0812,-2.0819,-2.0855,-2.0871,-2.0844,-2.0847,-2.0949,-2.095,-2.0952,-2.096,0,0,0,0,0,0,-2.064,-2.0651,-2.0666,-2.0696,-2.0707,-2.0761,-2.0749,-2.0753,-2.077,-2.077,-2.0798,-2.0802,-2.0812,-2.085,-2.0858,-2.0874,-2.085,-2.0947,-2.0949,-2.0951,-2.0958,-2.0962,-2.0964,0,0,0,0,0,-2.0636,-2.0666,-2.0667,-2.0676,-2.0726,-2.0762,-2.0768,-2.078,-2.0772,-2.0786,-2.0801,-2.0801,-2.0868,-2.0854,-2.0862,-2.088,-2.0946,-2.0949,-2.0951,-2.0957,-2.0961,-2.0964,0,0,0,0,0,0,-2.0636,-2.067,-2.0671,-2.0712,-2.0734,-2.0763,-2.0782,-2.0784,-2.0808,-2.0807,-2.0819,-2.0826,-2.0861,-2.0874,-2.0858,-2.0918,-2.0906,-2.091,-2.0907,-2.0912,-2.0914,-2.091,-2.0852,0,0,0,0,0,-2.0641,-2.0668,-2.0696,-2.0729,-2.074,-2.0759,-2.0775,-2.0782,-2.0805,-2.0814,-2.0832,-2.0854,-2.088,-2.0897,-2.0922,-2.0961,-2.0966,-2.0977,-2.098,-2.0982,-2.0985,-2.1006,-2.1011,-2.096,-2.096,-2.096,0,0,-2.0651,-2.0673,-2.0689,-2.0729,-2.0747,-2.0774,-2.0767,-2.0795,-2.0815,-2.0818,-2.0853,-2.0867,-2.0892,-2.093,-2.0947,-2.0942,-2.1001,-2.0985,-2.0987,-2.0989,-2.1009,-2.1014,-2.1018,-2.0962,-2.0962,-2.0961,0,0,-2.0684,-2.0703,-2.0732,-2.0751,-2.0779,-2.0792,-2.0799,-2.0827,-2.0836,-2.0872,-2.0875,-2.0898,-2.0943,-2.096,-2.0975,-2.1014,-2.1014,-2.1022,-2.1038,-2.1058,-2.1062,-2.1065,-2.1078,-2.1083,-2.1025,-2.1025,-2.1025,0,-2.0692,-2.0734,-2.0747,-2.0776,-2.0793,-2.0798,-2.0827,-2.0845,-2.0879,-2.089,-2.0884,-2.094,-2.0958,-2.0999,-2.1009,-2.1021,-2.1028,-2.1018,-2.106,-2.1064,-2.1068,-2.108,-2.1085,-2.1026,-2.1026,-2.1026,-2.1026,0,-2.0743,-2.0771,-2.0792,-2.0826,-2.0845,-2.0874,-2.0891,-2.0909,-2.0914,-2.0927,-2.0963,-2.0984,-2.1013,-2.1024,-2.1029,-2.1066,-2.1061,-2.1058,-2.1046,-2.1073,-2.1085,-2.109,-2.1027,-2.1027,-2.1027,-2.1027,0,0,-2.0776,-2.0817,-2.0824,-2.084,-2.0871,-2.0893,-2.0922,-2.0952,-2.0966,-2.099,-2.1014,-2.1052,-2.1049,-2.1065,-2.1073,-2.1091,-2.1119,-2.1085,-2.1085,-2.109,-2.116,-2.1162,-2.1167,-2.112,-2.1121,-2.1122,-2.1158,0,-2.0811,-2.0863,-2.0876,-2.092,-2.0946,-2.0952,-2.0977,-2.0998,-2.1011,-2.1034,-2.1048,-2.1075,-2.1069,-2.1079,-2.1097,-2.1112,-2.1133,-2.111,-2.1141,-2.1142,-2.1134,-2.1174,-2.1176,-2.1208,-2.1162,-2.1163,-2.1164,0,-2.0858,-2.0884,-2.0931,-2.0959,-2.097,-2.0992,-2.102,-2.1043,-2.1067,-2.1075,-2.1095,-2.11,-2.1129,-2.1117,-2.1157,-2.1141,-2.1155,-2.1164,-2.1166,-2.1168,-2.1154,-2.1176,-2.1219,-2.1223,-2.1171,-2.1171,-2.117,0,-2.0876,-2.0923,-2.0957,-2.097,-2.1003,-2.1019,-2.1033,-2.1057,-2.1074,-2.1098,-2.1109,-2.1136,-2.1151,-2.1171,-2.1184,-2.1174,-2.1222,-2.1212,-2.1229,-2.1229,-2.1238,-2.1237,-2.1282,-2.1249,-2.1248,-2.1248,-2.1248,0,-2.0913,-2.0942,-2.0965,-2.0986,-2.1018,-2.1032,-2.1063,-2.1077,-2.1098,-2.1121,-2.1128,-2.1149,-2.1165,-2.1188,-2.1198,-2.1229,-2.1236,-2.1242,-2.1244,-2.1241,-2.124,-2.1249,-2.1247,-2.125,-2.1249,-2.1249,-2.1249,0,-2.0939,-2.0956,-2.0993,-2.1022,-2.103,-2.1052,-2.1077,-2.1096,-2.111,-2.1139,-2.1146,-2.1167,-2.1195,-2.121,-2.1244,-2.1251,-2.1285,-2.1287,-2.1277,-2.1278,-2.1294,-2.1292,-2.1346,-2.1354,-2.1316,-2.1316,-2.1317,0,-2.0961,-2.0983,-2.1014,-2.1031,-2.1046,-2.1072,-2.1089,-2.1104,-2.1122,-2.1151,-2.1168,-2.1196,-2.1219,-2.1263,-2.1281,-2.1307,-2.1308,-2.1326,-2.1312,-2.1308,-2.1307,-2.1305,-2.1307,-2.1327,-2.1328,-2.1328,-2.1328,0,-2.0997,-2.1005,-2.103,-2.1059,-2.108,-2.1103,-2.1125,-2.1138,-2.1156,-2.1176,-2.1205,-2.1223,-2.1259,-2.1286,-2.1314,-2.1328,-2.1331,-2.1333,-2.1338,-2.1334,-2.1327,-2.133,-2.1283,-2.1331,-2.1331,-2.1331,-2.133,-2.133,-2.1021,-2.1041,-2.1066,-2.1094,-2.1113,-2.1134,-2.1154,-2.117,-2.1195,-2.1225,-2.1233,-2.1263,-2.1286,-2.1324,-2.1339,-2.1362,-2.1358,-2.1366,-2.1368,-2.1369,-2.137,-2.1325,-2.1367,-2.1367,-2.1367,-2.1367,-2.1367,0,-2.1057,-2.1074,-2.11,-2.1132,-2.1153,-2.1156,-2.1181,-2.1199,-2.1225,-2.1247,-2.1271,-2.1303,-2.133,-2.135,-2.1377,-2.1392,-2.1394,-2.1399,-2.1397,-2.14,-2.1372,-2.1364,-2.1397,-2.1397,-2.1397,-2.1397,-2.1397,-2.1397,-2.1079,-2.1112,-2.1122,-2.1165,-2.1181,-2.1211,-2.1225,-2.1244,-2.1262,-2.1299,-2.1322,-2.1335,-2.1356,-2.1384,-2.1409,-2.1414,-2.1423,-2.1428,-2.1433,-2.1405,-2.1402,-2.1399,-2.1392,-2.143,-2.143,-2.1459,-2.1459,-2.1459]}]]